カタログに戻る

STARLINK-2231

運用中通信VLEO
NORAD 48577·PAYLOAD·🇺🇸 United States

打ち上げ May 15, 2021 から Cape Canaveral Space Force Station

Loading…

次のパス (今後24時間)

TLE

最新Source: CelesTrak SupGP

元期: Sep 14, 2026, 14:22 UTC

1 48577C 21041AA  26257.59909722  .00038544  00000+0  12395-2 0  2576
2 48577  53.1591 327.7724 0001341  71.3574  46.4605 15.31680933    10

AllMySatでSTARLINK-2231をリアルタイム追跡

Download on the App Store